Weather Roundup
Issued by NWS Springfield, MO

Home | Current Version | Previous Version | Text Only | Print | Product List | Glossary On
Versions: 1 2 3 4 5 6 7 8 9 10 11 12 13 14 15 16 17 18 19 20 21 22 23 24 25 26 27 28 29 30 31 32 33 34 35 36 37 38 39 40 41 42 43 44 45 46 47 48 49 50
000
NZUS99 KSGF 241959
HRRSGF

HOURLY WEATHER
NATIONAL WEATHER SERVICE SPRINGFIELD MO
200 PM CST WED DEC 24 2014

......SGF CWA......

CITY           SKY/WX    TMP DP  RH WIND       PRES   REMARKS
SPRINGFIELD    LGT RAIN  36  32  85 W15G23    29.80R WCI  27
JOPLIN         CLOUDY    38  31  76 NW12      29.86F WCI  30
WEST PLAINS    CLOUDY    39  32  76 W12G22    29.74S WCI  32
ROLLA          CLOUDY    35  33  92 W9        29.69F WCI  28
OSAGE BEACH    CLOUDY    37  30  75 W9        29.75S WCI  31

......SURROUNDING SGF CWA......

CITY           SKY/WX    TMP DP  RH WIND       PRES   REMARKS
CHANUTE        CLOUDY    36  30  79 W14       29.88F WCI  27
PARSONS        CLOUDY    37  31  78 W10       29.90F WCI  30
COFFEYVILLE    CLOUDY    38  30  73 NW14      29.90F WCI  30
EMPORIA        CLOUDY    34  29  82 W7G18     29.87S WCI  28
SILOAM SPRINGS CLOUDY    37  28  70 W12       29.89R WCI  30
HARRISON AR    CLOUDY    37  32  82 NW13G21   29.80S WCI  29
NEAR YELLVILLE CLOUDY    41  30  65 W18G24    29.79S

......KANSAS AND MISSOURI......

CITY           SKY/WX    TMP DP  RH WIND       PRES   REMARKS
KANSAS CTY INT CLOUDY    37  32  82 W13       29.80F WCI  29
DOWNTOWN KC    CLOUDY    38  31  76 W9        29.81F WCI  31
COLUMBIA       CLOUDY    37  34  89 W13       29.72S WCI  29
SEDALIA        LGT RAIN  37  34  89 W16       29.77S WCI  28
ST JOSEPH      CLOUDY    37  32  82 NW13      29.81F WCI  29
ST LOUIS       LGT RAIN  39  34  82 W14       29.67R WCI  31
SPIRIT OF STL  CLOUDY    38  35  89 W8        29.68R WCI  32
KIRKSVILLE     CLOUDY    36  33  89 NW13      29.70F WCI  27
WICHITA        MOSUNNY   42  29  59 W10       29.89F
TOPEKA         CLOUDY    37  30  75 W8        29.85F WCI  31
OLATHE         CLOUDY    36  31  82 W14G20    29.80F WCI  27

......TENNESSEE......

CITY           SKY/WX    TMP DP  RH WIND       PRES   REMARKS
MEMPHIS        CLOUDY    45  34  65 W13       29.78S
NASHVILLE      CLOUDY    46  41  82 W8        29.69R

......ARKANSAS.......

CITY           SKY/WX    TMP DP  RH WIND       PRES   REMARKS
FAYETTEVILLE   CLOUDY    37  33  85 NW10      29.87S WCI  30
FT SMITH       CLOUDY    41  32  70 W16       29.92S
LITTLE ROCK    CLOUDY    45  32  60 W16G22    29.85R

......OKLAHOMA.......

CITY           SKY/WX    TMP DP  RH WIND       PRES   REMARKS
TULSA          CLOUDY    41  31  67 NW12      29.92F
PONCA CITY     PTSUNNY   44  30  57 W8        29.92F
MCALESTER      CLOUDY    44  30  57 NW12      29.96F
OKLAHOMA CITY  SUNNY     47  28  47 NW9G18    29.94F

......IOWA............

CITY           SKY/WX    TMP DP  RH WIND       PRES   REMARKS
DES MOINES     CLOUDY    35  31  85 NW15G25   29.72F WCI  25
QUAD CITIES    CLOUDY    36  31  82 NW15G22   29.57F WCI  27

......ILLINOIS........

CITY           SKY/WX    TMP DP  RH WIND       PRES   REMARKS
QUINCY         CLOUDY    36  32  85 NW16      29.65S WCI  26
CHICAGO        CLOUDY    40  34  79 W10       29.48F WCI  33



USA.gov is the U.S. government's official web portal to all federal, state and local government web resources and services.